[[{"header":{"parameterUnit":"m.s-1","parameterCategory":1,"la1":30.2991,"la2":30.254,"lo1":-89.0895,"lo2":-89.0444,"dy":0.0017,"dx":0.0017,"nx":28,"ny":28,"refTime":"2023-05-28T21:00:00:Z","depth":0,"parameterNumber":2,"parameterNumberName":"U-component_of_WINDS"},"data":[0,0,0,0,0,0,0,0,0,0,0,0,0,0,0,0,0,0,0,0,0,0,0,0,0,0,0,0,0,0,0,0,0,0,0,0,0,0,0,0,0,0,0,0,0,0,0,0,0,0,0,0,0,0,0,0,0,0,-2.5591,-2.559,0,-2.5495,-2.5494,-2.5493,-2.5359,-2.5357,-2.5355,-2.5352,-2.5254,-2.5254,-2.5253,0,0,0,0,0,0,0,0,0,0,0,0,0,-2.566,-2.5659,-2.5591,-2.559,-2.5589,-2.5496,-2.5494,-2.5493,-2.536,-2.5357,-2.5354,-2.5351,-2.5254,-2.5254,-2.5253,0,0,0,0,0,0,0,0,0,0,0,0,0,-2.5604,-2.5659,-2.5591,-2.5511,-2.5503,-2.5496,-2.5494,-2.5493,-2.536,-2.5357,-2.5353,-2.535,-2.5254,-2.5254,-2.5253,-2.5317,0,0,-2.5251,-2.525,0,0,0,0,0,0,0,0,-2.5607,-2.5601,-2.5524,-2.5517,-2.5507,-2.5436,-2.5482,-2.5434,-2.5361,-2.5414,-2.5352,-2.5348,-2.5317,-2.5311,-2.5301,-2.5312,-2.5308,-2.5251,-2.525,-2.525,-2.525,0,0,0,0,0,0,0,-2.5611,-2.5605,-2.5553,-2.5523,-2.5513,-2.548,-2.5468,-2.5472,-2.5386,-2.5409,-2.5399,-2.539,-2.5312,-2.5302,-2.5297,-2.5306,-2.5251,-2.525,-2.5249,-2.5249,-2.5367,-2.537,0,0,0,0,0,0,-2.5627,-2.5609,-2.5556,-2.555,-2.555,-2.5482,-2.5469,-2.5462,-2.5386,-2.5371,-2.5393,-2.5384,-2.5305,-2.5298,-2.5293,-2.5363,-2.525,-2.5249,-2.5249,-2.5363,-2.5368,-2.5372,0,0,0,0,0,0,-2.5629,-2.5624,-2.556,-2.5577,-2.5566,-2.5484,-2.5478,-2.5462,-2.5451,-2.5373,-2.5357,-2.5398,-2.5302,-2.5294,-2.5312,-2.5357,-2.5249,-2.5248,-2.5359,-2.5365,-2.537,-2.5502,0,0,0,0,0,0,-2.5632,-2.5625,-2.5648,-2.5578,-2.5566,-2.558,-2.5481,-2.5463,-2.5451,-2.5438,-2.5374,-2.536,-2.5298,-2.5314,-2.5312,-2.5354,-2.5248,-2.5355,-2.5362,-2.5368,-2.5494,-2.5512,-2.5527,0,0,0,0,0,-2.5635,-2.5689,-2.565,-2.5644,-2.5593,-2.5583,-2.5576,-2.5504,-2.5455,-2.5477,-2.5428,-2.5362,-2.5354,-2.5317,-2.5313,-2.5356,-2.5351,-2.536,-2.5367,-2.5486,-2.5508,-2.5527,0,0,0,0,0,0,-2.5765,-2.5678,-2.5634,-2.5667,-2.5634,-2.5561,-2.5586,-2.553,-2.5509,-2.5498,-2.541,-2.5397,-2.5426,-2.5393,-2.5354,-2.5415,-2.5343,-2.5351,-2.5434,-2.5455,-2.5471,-2.5477,-2.5247,0,0,0,0,0,-2.5798,-2.5797,-2.5721,-2.5758,-2.5744,-2.5669,-2.5662,-2.561,-2.5571,-2.5556,-2.5508,-2.5473,-2.5463,-2.5457,-2.5443,-2.549,-2.5474,-2.5518,-2.5535,-2.5549,-2.5556,-2.5578,-2.5596,-2.5398,-2.5398,-2.5398,0,0,-2.5865,-2.5817,-2.5822,-2.5783,-2.5751,-2.5753,-2.5657,-2.5663,-2.5663,-2.5557,-2.557,-2.5535,-2.549,-2.5523,-2.5535,-2.5496,-2.5608,-2.5559,-2.5571,-2.557,-2.5588,-2.5607,-2.5624,-2.5403,-2.5402,-2.5402,0,0,-2.5987,-2.5952,-2.5979,-2.5949,-2.5902,-2.5852,-2.586,-2.5796,-2.5768,-2.578,-2.5701,-2.5701,-2.5685,-2.5657,-2.564,-2.5757,-2.5696,-2.5756,-2.5842,-2.5865,-2.588,-2.5894,-2.5934,-2.595,-2.5763,-2.5763,-2.5764,0,-2.6076,-2.6075,-2.6,-2.601,-2.5996,-2.5902,-2.5929,-2.5904,-2.5855,-2.5847,-2.5806,-2.5785,-2.5748,-2.5773,-2.5802,-2.5793,-2.5797,-2.576,-2.5884,-2.5897,-2.5908,-2.5946,-2.5961,-2.5771,-2.577,-2.5769,-2.5768,0,-2.6186,-2.6187,-2.6215,-2.617,-2.6159,-2.6178,-2.6107,-2.6105,-2.6056,-2.6011,-2.6026,-2.598,-2.5955,-2.5958,-2.5909,-2.5976,-2.5954,-2.59,-2.5825,-2.5936,-2.5969,-2.5983,-2.5781,-2.5779,-2.5776,-2.5775,0,0,-2.6383,-2.63,-2.6311,-2.6291,-2.6234,-2.6233,-2.6249,-2.6226,-2.6226,-2.6197,-2.6207,-2.6198,-2.6148,-2.613,-2.6078,-2.6099,-2.6193,-2.6042,-2.6039,-2.607,-2.6264,-2.6303,-2.6321,-2.6154,-2.6157,-2.6159,-2.6267,0,-2.6493,-2.6514,-2.6449,-2.6486,-2.6486,-2.6399,-2.6413,-2.6381,-2.6341,-2.6335,-2.6291,-2.6285,-2.622,-2.6209,-2.6226,-2.6178,-2.6231,-2.617,-2.6162,-2.6163,-2.6173,-2.6339,-2.6379,-2.6484,-2.628,-2.6282,-2.6284,0,-2.6622,-2.6601,-2.6639,-2.6582,-2.6579,-2.6593,-2.6567,-2.6563,-2.6525,-2.6495,-2.6477,-2.6417,-2.6429,-2.6361,-2.6377,-2.6337,-2.6331,-2.6308,-2.631,-2.6304,-2.6228,-2.6335,-2.6515,-2.653,-2.6304,-2.6303,-2.6301,0,-2.6761,-2.6742,-2.6762,-2.6747,-2.6682,-2.6693,-2.6666,-2.6625,-2.6616,-2.6594,-2.6587,-2.6568,-2.6557,-2.6543,-2.6481,-2.6437,-2.6504,-2.643,-2.6478,-2.648,-2.6492,-2.6492,-2.6672,-2.6494,-2.6494,-2.6494,-2.6493,0,-2.6888,-2.6914,-2.6823,-2.6835,-2.6863,-2.6789,-2.6818,-2.6783,-2.6748,-2.6752,-2.6678,-2.6683,-2.6601,-2.6598,-2.655,-2.657,-2.6566,-2.6541,-2.6528,-2.6546,-2.6549,-2.6538,-2.6528,-2.6498,-2.6497,-2.6496,-2.6495,0,-2.7045,-2.6985,-2.7001,-2.6939,-2.6924,-2.6947,-2.6894,-2.6903,-2.686,-2.6866,-2.6864,-2.6796,-2.6789,-2.6726,-2.6705,-2.6673,-2.6711,-2.6684,-2.6723,-2.6713,-2.6764,-2.676,-2.6941,-2.6961,-2.6774,-2.6776,-2.6777,0,-2.7128,-2.7146,-2.7087,-2.7085,-2.7062,-2.7059,-2.705,-2.6979,-2.6973,-2.6933,-2.6947,-2.6935,-2.692,-2.6914,-2.6862,-2.6847,-2.6818,-2.6883,-2.6814,-2.6833,-2.6816,-2.6815,-2.6816,-2.6896,-2.6898,-2.69,-2.6902,0,-2.7282,-2.7253,-2.7242,-2.7222,-2.7214,-2.7195,-2.7171,-2.7174,-2.7096,-2.7093,-2.7085,-2.7074,-2.7054,-2.7042,-2.7018,-2.6991,-2.6934,-2.6925,-2.6934,-2.6952,-2.6973,-2.6961,-2.676,-2.692,-2.6918,-2.6917,-2.6916,-2.6915,-2.7403,-2.7416,-2.7376,-2.7367,-2.7343,-2.7323,-2.7329,-2.7288,-2.728,-2.7257,-2.7217,-2.7216,-2.718,-2.7141,-2.712,-2.7118,-2.7084,-2.7099,-2.7102,-2.7106,-2.7116,-2.6977,-2.7114,-2.7113,-2.7113,-2.7112,-2.7112,0,-2.7552,-2.7523,-2.7516,-2.7486,-2.7479,-2.7428,-2.74,-2.7398,-2.7398,-2.7369,-2.7358,-2.735,-2.7339,-2.7289,-2.7273,-2.7281,-2.7255,-2.7279,-2.7276,-2.7271,-2.7148,-2.714,-2.7301,-2.7301,-2.7301,-2.7301,-2.7301,-2.7301,-2.7628,-2.7646,-2.7613,-2.7619,-2.7589,-2.7587,-2.7576,-2.7558,-2.7535,-2.7529,-2.752,-2.7488,-2.7451,-2.7432,-2.7421,-2.7406,-2.7403,-2.7436,-2.7413,-2.7298,-2.7279,-2.7262,-2.7254,-2.7436,-2.7437,-2.7535,-2.7536,-2.7537]},{"header":{"parameterUnit":"m.s-1","parameterCategory":1,"la1":30.2991,"la2":30.254,"lo1":-89.0895,"lo2":-89.0444,"dy":0.0017,"dx":0.0017,"nx":28,"ny":28,"refTime":"2023-05-28T21:00:00:Z","depth":0,"parameterNumber":3,"parameterNumberName":"V-component_of_WINDS"},"data":[0,0,0,0,0,0,0,0,0,0,0,0,0,0,0,0,0,0,0,0,0,0,0,0,0,0,0,0,0,0,0,0,0,0,0,0,0,0,0,0,0,0,0,0,0,0,0,0,0,0,0,0,0,0,0,0,0,0,2.0861,2.0861,0,2.092,2.0921,2.0921,2.0966,2.0966,2.0967,2.0967,2.1025,2.1026,2.1027,0,0,0,0,0,0,0,0,0,0,0,0,0,2.0784,2.0785,2.0861,2.0862,2.0862,2.092,2.0921,2.0922,2.0966,2.0966,2.0967,2.0967,2.1025,2.1026,2.1027,0,0,0,0,0,0,0,0,0,0,0,0,0,2.0828,2.0786,2.0861,2.0891,2.0895,2.092,2.0921,2.0922,2.0966,2.0966,2.0967,2.0968,2.1024,2.1026,2.1028,2.1026,0,0,2.1033,2.1034,0,0,0,0,0,0,0,0,2.0825,2.083,2.0886,2.0889,2.0893,2.0936,2.0915,2.0957,2.0966,2.0939,2.0967,2.0968,2.0995,2.0999,2.1009,2.1029,2.1031,2.1033,2.1034,2.1035,2.1035,0,0,0,0,0,0,0,2.0822,2.0828,2.0884,2.0887,2.0891,2.0902,2.0909,2.0923,2.0962,2.0941,2.0945,2.0951,2.0997,2.1007,2.101,2.1032,2.1033,2.1035,2.1036,2.1036,2.1054,2.1053,0,0,0,0,0,0,2.0815,2.0825,2.0882,2.0886,2.086,2.0903,2.091,2.0922,2.0962,2.0969,2.095,2.0953,2.1004,2.1008,2.1013,2.1013,2.1035,2.1036,2.1037,2.1054,2.1054,2.1053,0,0,0,0,0,0,2.0813,2.0819,2.088,2.0857,2.0865,2.0903,2.0916,2.0923,2.0933,2.097,2.0977,2.0954,2.1004,2.101,2.1023,2.1016,2.1037,2.1039,2.1055,2.1054,2.1053,2.1014,0,0,0,0,0,0,2.081,2.0818,2.0818,2.0856,2.0866,2.0889,2.0915,2.0923,2.0936,2.094,2.0974,2.0981,2.1005,2.102,2.1024,2.1018,2.104,2.1056,2.1055,2.1053,2.1016,2.1012,2.1008,0,0,0,0,0,2.0808,2.0804,2.0818,2.0825,2.0867,2.0889,2.0894,2.0923,2.0935,2.0935,2.0959,2.098,2.1016,2.1021,2.1026,2.1021,2.1056,2.1055,2.1054,2.1018,2.1013,2.1008,0,0,0,0,0,0,2.0763,2.081,2.0826,2.0835,2.0858,2.0896,2.0897,2.0917,2.0936,2.0939,2.0973,2.0981,2.0989,2.1007,2.1011,2.1021,2.1039,2.1038,2.101,2.1005,2.1001,2.0996,2.1042,0,0,0,0,0,2.0755,2.0769,2.0809,2.0813,2.0824,2.0859,2.0869,2.089,2.0914,2.0924,2.0948,2.0971,2.0987,2.0997,2.1015,2.1019,2.1027,2.1018,2.1015,2.1011,2.101,2.1013,2.101,2.1049,2.1049,2.1049,0,0,2.0737,2.0764,2.0771,2.0805,2.0825,2.0838,2.0866,2.0879,2.0889,2.0925,2.0939,2.0958,2.0985,2.0993,2.0998,2.1008,2.1001,2.101,2.1007,2.1007,2.1012,2.1008,2.1005,2.1048,2.1048,2.1048,0,0,2.0711,2.0734,2.074,2.076,2.079,2.0814,2.0815,2.0851,2.0865,2.0879,2.0907,2.0919,2.0947,2.0966,2.0978,2.0961,2.098,2.0966,2.0945,2.0948,2.0945,2.0942,2.0935,2.0932,2.0965,2.0965,2.0965,0,2.0685,2.0707,2.074,2.0752,2.0765,2.0801,2.0806,2.0824,2.0858,2.0866,2.0877,2.0913,2.0934,2.0947,2.0943,2.0953,2.0955,2.0961,2.0943,2.0941,2.0939,2.0932,2.093,2.0963,2.0963,2.0963,2.0963,0,2.0673,2.0688,2.0689,2.0722,2.0736,2.0744,2.0778,2.0789,2.0809,2.083,2.0844,2.0871,2.0894,2.09,2.0918,2.0915,2.092,2.0937,2.0954,2.0932,2.0927,2.0925,2.096,2.0961,2.0961,2.0962,0,0,2.0619,2.0672,2.0671,2.0687,2.0724,2.0735,2.0746,2.077,2.0777,2.08,2.0809,2.0833,2.0848,2.0863,2.0885,2.0887,2.0871,2.0903,2.0905,2.0896,2.0869,2.0855,2.0852,2.0885,2.0885,2.0884,2.0866,0,2.0598,2.0619,2.0649,2.066,2.0673,2.0708,2.0717,2.074,2.0761,2.0775,2.0799,2.0815,2.0834,2.0844,2.0848,2.0872,2.0866,2.0874,2.0892,2.0893,2.0883,2.0849,2.0835,2.0816,2.0864,2.0864,2.0864,0,2.0576,2.0598,2.0609,2.0646,2.0653,2.066,2.0685,2.0698,2.0726,2.0741,2.0758,2.0782,2.0794,2.0812,2.0828,2.0833,2.0843,2.0856,2.0856,2.0857,2.0875,2.0848,2.0811,2.0807,2.0861,2.0861,2.0861,0,2.0534,2.0567,2.0578,2.059,2.0633,2.0637,2.0655,2.0683,2.0696,2.0718,2.0726,2.0748,2.076,2.0777,2.0806,2.0816,2.0819,2.0839,2.0831,2.083,2.0829,2.0828,2.0791,2.0837,2.0837,2.0838,2.0838,0,2.0506,2.0512,2.056,2.0566,2.0574,2.0609,2.0615,2.0636,2.0661,2.0672,2.0704,2.0713,2.0752,2.0766,2.0789,2.0799,2.0805,2.0817,2.0822,2.0813,2.0811,2.0818,2.082,2.0837,2.0837,2.0837,2.0837,0,2.046,2.0492,2.0507,2.0547,2.0557,2.056,2.0595,2.0602,2.0626,2.064,2.0645,2.0682,2.07,2.0732,2.0759,2.0774,2.0779,2.079,2.077,2.0773,2.0763,2.0763,2.0728,2.0725,2.0774,2.0774,2.0774,0,2.0439,2.0444,2.0485,2.0496,2.0513,2.0528,2.0542,2.0577,2.059,2.0622,2.0625,2.0647,2.0665,2.0693,2.0721,2.0743,2.0753,2.074,2.0756,2.0747,2.0752,2.075,2.0751,2.0735,2.0734,2.0733,2.0733,0,2.0399,2.0415,2.0433,2.0457,2.0473,2.0493,2.0515,2.0521,2.0562,2.0574,2.0594,2.0608,2.0637,2.0657,2.0683,2.0701,2.0723,2.0728,2.0727,2.0716,2.0704,2.0709,2.0758,2.0728,2.0728,2.0729,2.0729,2.0729,2.0364,2.037,2.04,2.0419,2.044,2.046,2.0469,2.0495,2.0512,2.0539,2.0559,2.0577,2.0605,2.0641,2.0658,2.0673,2.0683,2.0682,2.0681,2.068,2.0676,2.0703,2.0678,2.0678,2.0678,2.0678,2.0678,0,2.0323,2.0345,2.0363,2.0393,2.0408,2.043,2.0456,2.0467,2.0483,2.0507,2.0525,2.0548,2.0568,2.06,2.0622,2.0627,2.0638,2.0632,2.0631,2.0635,2.0666,2.0664,2.0623,2.0623,2.0623,2.0623,2.0623,2.0623,2.0304,2.0316,2.0336,2.0358,2.0379,2.0398,2.041,2.0429,2.0449,2.0473,2.049,2.0511,2.0538,2.0564,2.0583,2.0592,2.0598,2.0588,2.0599,2.0627,2.0632,2.0637,2.0636,2.0589,2.0589,2.0567,2.0567,2.0567]}]]